Regional Weather Roundup
Issued by NWS Charleston, WV

Home | Current Version | Previous Version | Text Only | Print | Product List | Glossary On
Versions: 1 2 3 4 5 6 7 8 9 10 11 12 13 14 15 16 17 18 19 20 21 22 23 24 25 26 27 28 29 30 31 32 33 34 35 36 37 38 39 40 41 42 43 44 45 46 47 48 49 50
694
ASUS41 KRLX 261210
RWRRLX
West Virginia Regional Weather Roundup
National Weather Service Charleston WV
800 AM EDT MON JUN 26 2017

Note: "fair" indicates few or no clouds below 12,000 feet with no
significant weather and/or obstructions to visibility.

WVZ003-261300-
Northern Panhandle of West Virginia

CITY           SKY/WX    TMP DP  RH WIND       PRES   REMARKS
WHEELING       SUNNY     58  49  72 CALM      30.10S
$$

WVZ009-261300-
Northwest West Virginia

CITY           SKY/WX    TMP DP  RH WIND       PRES   REMARKS
PARKERSBURG    MOSUNNY   59  54  83 CALM      30.14S
$$

WVZ006-261300-
Western West Virginia

CITY           SKY/WX    TMP DP  RH WIND       PRES   REMARKS
HUNTINGTON     SUNNY     59  54  83 SW6       30.15R
$$

WVZ015-261300-
West Central West Virginia

CITY           SKY/WX    TMP DP  RH WIND       PRES   REMARKS
CHARLESTON     SUNNY     60  56  86 CALM      30.14R
$$

WVZ022-031-261300-
North Central West Virginia

CITY           SKY/WX    TMP DP  RH WIND       PRES   REMARKS
CLARKSBURG     SUNNY     58  54  86 SW3       30.13R
MORGANTOWN     MOSUNNY   58  52  80 CALM      30.13R
$$

WVZ025-035-042-045-261300-
Southern West Virginia

CITY           SKY/WX    TMP DP  RH WIND       PRES   REMARKS
BECKLEY        SUNNY     57  49  74 S5        30.19S
LOGAN            N/A     59  54  82 CALM      30.17R
BLUEFIELD      SUNNY     58  47  66 SW5       30.21S
LEWISBURG      SUNNY     52  49  91 CALM      30.19R
$$

WVZ047-261300-
Northern Mountains of West Virginia

CITY           SKY/WX    TMP DP  RH WIND       PRES   REMARKS
ELKINS         SUNNY     55  50  83 CALM      30.16S
$$

WVZ052-261300-
Eastern Panhandle of West Virginia

CITY           SKY/WX    TMP DP  RH WIND       PRES   REMARKS
MARTINSBURG    SUNNY     67  51  56 W8        30.09S
PETERSBURG     SUNNY     60  54  79 CALM      30.14S
$$




USA.gov is the U.S. government's official web portal to all federal, state and local government web resources and services.